This is the latest recevied weather packets stored in our database for station/object DM4XI-13. If no packets are shown the sender has not sent any weather packets the latest 10 day(s).
| Time | Temp. | Humidity | Pressure | Rain* | Wind** | Luminosity | Snow |
|---|---|---|---|---|---|---|---|
| 1778103002 | 10.56° C | 95% | 1006 hPa | 0 mm | 0 m/s | 0 W/m² | - |
| 1778102941 | 10.56° C | 95% | 1006.1 hPa | 0 mm | 0.45 m/s, 195° | 0 W/m² | - |
| 1778102880 | 10.56° C | 95% | 1006.2 hPa | 0 mm | 0 m/s | 0 W/m² | - |
| 1778102819 | 10.56° C | 95% | 1006.2 hPa | 0 mm | 0 m/s | 0 W/m² | - |
| 1778102758 | 10.56° C | 95% | 1006.1 hPa | 0 mm | 0 m/s | 0 W/m² | - |
| 1778102697 | 10.56° C | 95% | 1006.1 hPa | 0 mm | 0.45 m/s, 190° | 0 W/m² | - |
| 1778102636 | 10.56° C | 95% | 1006 hPa | 0 mm | 0.45 m/s, 180° | 0 W/m² | - |
| 1778102575 | 10.56° C | 95% | 1006.1 hPa | 0 mm | 0.45 m/s, 187° | 0 W/m² | - |
| 1778102514 | 10.56° C | 95% | 1006 hPa | 0 mm | 0.45 m/s, 183° | 0 W/m² | - |
| 1778102453 | 10.56° C | 95% | 1006.1 hPa | 0 mm | 0.45 m/s, 187° | 0 W/m² | - |
| 1778102392 | 10.56° C | 95% | 1006 hPa | 0 mm | 0.89 m/s, 175° | 0 W/m² | - |
| 1778102331 | 10.56° C | 95% | 1006 hPa | 0 mm | 0.45 m/s, 181° | 0 W/m² | - |
| 1778102270 | 10.56° C | 95% | 1006.1 hPa | 0 mm | 0.45 m/s, 183° | 0 W/m² | - |
| 1778102209 | 10.56° C | 94% | 1006.1 hPa | 0 mm | 0 m/s | 0 W/m² | - |
| 1778102148 | 10.56° C | 94% | 1006.1 hPa | 0 mm | 0.45 m/s, 184° | 0 W/m² | - |
| 1778102087 | 10.56° C | 94% | 1006 hPa | 0 mm | 0.45 m/s, 184° | 0 W/m² | - |
| 1778102026 | 10.56° C | 94% | 1006.1 hPa | 0 mm | 0.45 m/s, 180° | 0 W/m² | - |
| 1778101965 | 10.56° C | 94% | 1006.2 hPa | 0 mm | 0 m/s | 0 W/m² | - |
| 1778101904 | 10.56° C | 94% | 1006.2 hPa | 0 mm | 0.45 m/s, 201° | 0 W/m² | - |
| 1778101843 | 10.56° C | 94% | 1006 hPa | 0 mm | 0.45 m/s, 202° | 0 W/m² | - |
| 1778101782 | 10.56° C | 94% | 1006.1 hPa | 0 mm | 0.89 m/s, 187° | 0 W/m² | - |
| 1778101721 | 10.56° C | 94% | 1006.2 hPa | 0 mm | 1.34 m/s, 214° | 0 W/m² | - |
| 1778101660 | 10.56° C | 94% | 1006.3 hPa | 0 mm | 0.89 m/s, 171° | 0 W/m² | - |
| 1778101599 | 10.56° C | 94% | 1006.3 hPa | 0 mm | 0.45 m/s, 183° | 0 W/m² | - |
| 1778101537 | 11.11° C | 94% | 1006.2 hPa | 0 mm | 0.89 m/s, 184° | 0 W/m² | - |
* Rain latest hour (hover to see other rain measurements)
** Current wind speed in m/s (hover to see current wind gust speed)